When you browse on this site, cookies collect data to enhance your experience and personalize the content and advertising you see.
Visit our Privacy Policy to learn more. By continuing to use the site, you agree to this use of cookies and data.
  • In Hungary
  • List of Countries
  • For 7 days
  • Water Temperature
  • Weather Map
  • News
  • Weather Widgets
  • user-avatar
    Login

    Hourly Weather Novaya Zhizn

    Today, 23 January, Thursday

    Time Temperature Precipitation Wind Pressure Humidity
    00:00 -6°C° 0 mm 3 mps 733 mmHg 95%
    01:00 -6°C° 0 mm 3 mps 733 mmHg 95%
    02:00 -6°C° 0 mm 3 mps 733 mmHg 95%
    03:00 -5°C° 0 mm 4 mps 733 mmHg 95%
    04:00 -6°C° 0 mm 5 mps 734 mmHg 94%
    05:00 -6°C° 0 mm 6 mps 734 mmHg 92%
    06:00 -6°C° 0 mm 6 mps 734 mmHg 91%
    07:00 -6°C° 0 mm 6 mps 735 mmHg 90%
    08:00 -8°C° 0 mm 6 mps 735 mmHg 90%
    09:00 -7°C° 0 mm 5 mps 736 mmHg 89%
    10:00 -7°C° 0 mm 5 mps 736 mmHg 90%
    11:00 -7°C° 0 mm 5 mps 737 mmHg 90%
    12:00 -6°C° 0 mm 5 mps 737 mmHg 91%
    13:00 -7°C° 0.1 mm 5 mps 738 mmHg 91%
    14:00 -7°C° 0.1 mm 4 mps 738 mmHg 92%
    15:00 -7°C° 0.1 mm 4 mps 739 mmHg 92%
    16:00 -8°C° 0.2 mm 5 mps 739 mmHg 90%
    17:00 -8°C° 0.2 mm 5 mps 740 mmHg 88%
    18:00 -10°C° 0.2 mm 5 mps 740 mmHg 86%
    19:00 -11°C° 0 mm 5 mps 741 mmHg 87%
    20:00 -11°C° 0 mm 5 mps 742 mmHg 89%
    21:00 -12°C° 0 mm 5 mps 742 mmHg 91%
    22:00 -12°C° 0 mm 5 mps 743 mmHg 91%
    23:00 -12°C° 0 mm 4 mps 743 mmHg 91%

    Tomorrow, 24 January, Friday

    Time Temperature Precipitation Wind Pressure Humidity
    00:00 -12°C° 0 mm 4 mps 744 mmHg 91%
    01:00 -14°C° 0 mm 4 mps 745 mmHg 91%
    02:00 -15°C° 0 mm 4 mps 745 mmHg 92%
    03:00 -16°C° 0 mm 4 mps 746 mmHg 92%
    04:00 -16°C° 0 mm 4 mps 746 mmHg 93%
    05:00 -16°C° 0 mm 3 mps 746 mmHg 93%
    06:00 -16°C° 0 mm 3 mps 747 mmHg 94%
    07:00 -16°C° 0 mm 3 mps 747 mmHg 93%
    08:00 -16°C° 0 mm 3 mps 748 mmHg 92%
    09:00 -16°C° 0 mm 3 mps 748 mmHg 92%
    10:00 -15°C° 0 mm 3 mps 749 mmHg 91%
    11:00 -14°C° 0 mm 3 mps 749 mmHg 90%
    12:00 -13°C° 0 mm 3 mps 749 mmHg 89%
    13:00 -12°C° 0 mm 4 mps 748 mmHg 89%
    14:00 -12°C° 0 mm 4 mps 748 mmHg 88%
    15:00 -12°C° 0 mm 5 mps 748 mmHg 88%
    16:00 -11°C° 0 mm 5 mps 747 mmHg 89%
    17:00 -11°C° 0 mm 6 mps 746 mmHg 90%
    18:00 -11°C° 0 mm 7 mps 746 mmHg 91%
    19:00 -9°C° 0.1 mm 7 mps 745 mmHg 91%
    20:00 -10°C° 0.1 mm 8 mps 745 mmHg 92%
    21:00 -8°C° 0.1 mm 8 mps 744 mmHg 93%
    22:00 -7°C° 0.3 mm 8 mps 743 mmHg 94%
    23:00 -7°C° 0.3 mm 8 mps 742 mmHg 94%

    Day after tomorrow, 25 January, Saturday

    Time Temperature Precipitation Wind Pressure Humidity
    00:00 -6°C° 0.3 mm 8 mps 741 mmHg 95%
    01:00 -5°C° 0.4 mm 8 mps 741 mmHg 96%
    02:00 -5°C° 0.4 mm 8 mps 740 mmHg 96%
    03:00 -3°C° 0.4 mm 7 mps 740 mmHg 97%
    04:00 -2°C° 0.3 mm 7 mps 740 mmHg 97%
    05:00 -2°C° 0.3 mm 7 mps 739 mmHg 98%
    06:00 -1°C° 0.3 mm 6 mps 739 mmHg 98%
    07:00 -1°C° 0.1 mm 6 mps 739 mmHg 98%
    08:00 -2°C° 0.1 mm 6 mps 739 mmHg 98%
    09:00 -2°C° 0.1 mm 6 mps 739 mmHg 98%
    10:00 -2°C° 0.1 mm 6 mps 739 mmHg 99%
    11:00 -1°C° 0.1 mm 5 mps 739 mmHg 99%
    12:00 -1°C° 0.1 mm 5 mps 739 mmHg 99%
    13:00 -1°C° 0.2 mm 5 mps 739 mmHg 99%
    14:00 -2°C° 0.2 mm 6 mps 738 mmHg 99%
    15:00 -2°C° 0.2 mm 6 mps 738 mmHg 99%
    16:00 -2°C° 0.2 mm 7 mps 738 mmHg 98%
    17:00 -2°C° 0.2 mm 7 mps 738 mmHg 97%
    18:00 -2°C° 0.2 mm 8 mps 737 mmHg 96%
    19:00 -2°C° 0.1 mm 8 mps 737 mmHg 94%
    20:00 -2°C° 0.1 mm 8 mps 737 mmHg 92%
    21:00 -2°C° 0.1 mm 8 mps 737 mmHg 89%
    22:00 -2°C° 0 mm 8 mps 737 mmHg 89%
    23:00 -4°C° 0 mm 8 mps 737 mmHg 89%

    26 January, Sunday

    Time Temperature Precipitation Wind Pressure Humidity
    00:00 -4°C° 0 mm 8 mps 737 mmHg 88%
    01:00 -4°C° 0.3 mm 8 mps 738 mmHg 87%
    02:00 -5°C° 0.3 mm 8 mps 738 mmHg 86%
    03:00 -5°C° 0.3 mm 8 mps 738 mmHg 85%
    04:00 -6°C° 0 mm 7 mps 739 mmHg 85%
    05:00 -7°C° 0 mm 7 mps 739 mmHg 85%
    06:00 -8°C° 0 mm 7 mps 740 mmHg 85%
    07:00 -8°C° 0 mm 7 mps 741 mmHg 86%
    08:00 -8°C° 0 mm 7 mps 742 mmHg 88%
    09:00 -8°C° 0 mm 7 mps 743 mmHg 89%
    10:00 -8°C° 0 mm 7 mps 744 mmHg 88%
    11:00 -7°C° 0 mm 7 mps 744 mmHg 88%
    12:00 -7°C° 0 mm 7 mps 745 mmHg 87%
    13:00 -7°C° 0 mm 7 mps 746 mmHg 87%
    14:00 -7°C° 0 mm 7 mps 746 mmHg 86%
    15:00 -6°C° 0 mm 7 mps 747 mmHg 85%
    16:00 -6°C° 0 mm 6 mps 747 mmHg 86%
    17:00 -8°C° 0 mm 6 mps 748 mmHg 87%
    18:00 -8°C° 0 mm 5 mps 749 mmHg 88%
    19:00 -8°C° 0 mm 5 mps 749 mmHg 89%
    20:00 -8°C° 0 mm 5 mps 750 mmHg 90%
    21:00 -10°C° 0 mm 5 mps 751 mmHg 90%
    22:00 -10°C° 0 mm 5 mps 751 mmHg 91%
    23:00 -10°C° 0 mm 5 mps 751 mmHg 91%

    27 January, Monday

    Time Temperature Precipitation Wind Pressure Humidity
    00:00 -9°C° 0 mm 4 mps 752 mmHg 92%
    01:00 -10°C° 0 mm 4 mps 752 mmHg 92%
    02:00 -10°C° 0 mm 4 mps 753 mmHg 93%
    03:00 -10°C° 0 mm 3 mps 753 mmHg 93%
    04:00 -10°C° 0 mm 3 mps 754 mmHg 93%
    05:00 -10°C° 0 mm 3 mps 754 mmHg 93%
    06:00 -9°C° 0 mm 2 mps 755 mmHg 93%
    07:00 -9°C° 0 mm 2 mps 755 mmHg 93%
    08:00 -9°C° 0 mm 2 mps 756 mmHg 92%
    09:00 -9°C° 0 mm 2 mps 756 mmHg 92%
    10:00 -8°C° 0 mm 2 mps 756 mmHg 92%
    11:00 -7°C° 0 mm 2 mps 756 mmHg 92%
    12:00 -7°C° 0 mm 3 mps 756 mmHg 91%
    13:00 -6°C° 0 mm 3 mps 756 mmHg 91%
    14:00 -7°C° 0 mm 4 mps 755 mmHg 90%
    15:00 -5°C° 0 mm 4 mps 755 mmHg 90%
    16:00 -6°C° 0 mm 5 mps 755 mmHg 90%
    17:00 -6°C° 0 mm 5 mps 754 mmHg 90%
    18:00 -6°C° 0 mm 5 mps 754 mmHg 90%
    19:00 -6°C° 0 mm 5 mps 754 mmHg 90%
    20:00 -6°C° 0 mm 5 mps 753 mmHg 91%
    21:00 -6°C° 0 mm 5 mps 753 mmHg 91%
    22:00 -6°C° 0 mm 5 mps 753 mmHg 91%
    23:00 -6°C° 0 mm 5 mps 752 mmHg 90%

    28 January, Tuesday

    Time Temperature Precipitation Wind Pressure Humidity
    00:00 -6°C° 0 mm 6 mps 752 mmHg 89%
    01:00 -6°C° 0 mm 6 mps 751 mmHg 89%
    02:00 -6°C° 0 mm 6 mps 751 mmHg 88%
    03:00 -6°C° 0 mm 6 mps 750 mmHg 88%
    04:00 -6°C° 0.2 mm 6 mps 750 mmHg 90%
    05:00 -6°C° 0.2 mm 6 mps 749 mmHg 93%
    06:00 -5°C° 0.2 mm 6 mps 749 mmHg 96%
    07:00 -5°C° 0.3 mm 6 mps 748 mmHg 96%
    08:00 -5°C° 0.3 mm 6 mps 748 mmHg 96%
    09:00 -4°C° 0.3 mm 6 mps 748 mmHg 96%
    10:00 -4°C° 0.2 mm 6 mps 747 mmHg 96%
    11:00 -4°C° 0.2 mm 7 mps 747 mmHg 95%
    12:00 -3°C° 0.2 mm 7 mps 747 mmHg 95%
    13:00 -3°C° 0.3 mm 7 mps 747 mmHg 96%
    14:00 -3°C° 0.3 mm 7 mps 746 mmHg 97%
    15:00 -3°C° 0.3 mm 6 mps 746 mmHg 98%
    16:00 -2°C° 0.5 mm 6 mps 746 mmHg 98%
    17:00 -2°C° 0.5 mm 6 mps 746 mmHg 98%
    18:00 -2°C° 0.5 mm 6 mps 746 mmHg 98%
    19:00 -2°C° 0.1 mm 6 mps 747 mmHg 97%
    20:00 -2°C° 0.1 mm 6 mps 747 mmHg 96%
    21:00 -2°C° 0.1 mm 6 mps 748 mmHg 96%
    22:00 -2°C° 0 mm 5 mps 748 mmHg 94%
    23:00 -2°C° 0 mm 5 mps 749 mmHg 93%
    Show more